CAPE
570 493 848 46 0 42 26 143 116 196 355 255 184 183 136 75 25 20 393 392 823 1224 1670 2326 3078 2655 2395 2749 2921 2565 2350 2251 2444 2318 1983 1621 1518 1449 1457 1542 1592 1463 1906 1808 1735 1850 1955 1906 1923
772 993 851 0 0 13 41 160 130 235 147 306 293 165 128 99 88 323 451 636 1044 1392 1893 1971 2727 2911 2492 2651 2910 2746 1998 2059 2163 2170 2296 1833 1843 1795 1585 1603 1712 2033 1812 1709 1904 1852 1765 1843 1816
818 1178 387 22 0 1 34 116 162 255 349 283 276 127 39 0 213 435 535 794 1389 1631 1948 2102 2578 2642 2551 2433 2498 2548 2554 2145 2305 2255 2108 2105 1953 1809 1515 1492 2010 1901 1626 1635 1801 1618 1665 1493 1317
787 884 213 24 0 46 9 52 160 191 328 282 269 161 0 0 256 379 602 1166 1369 1705 1980 2598 2494 2613 2468 2546 2539 2499 2348 2460 2303 2432 2095 2074 2017 1791 1858 1778 1565 1612 1953 1777 1685 1510 1651 1696 1397
767 659 19 23 39 38 16 10 48 120 463 424 337 78 0 0 168 461 652 896 1275 1634 1896 2111 2617 2470 2429 2125 2235 2186 2339 2419 2358 2112 2107 2075 1931 1791 1400 1454 1981 2112 1669 1760 1505 1436 1308 1505 1366
502 116 17 53 103 47 18 11 6 181 433 238 104 20 0 76 182 332 402 732 1111 1409 1825 1970 2297 2247 2188 2174 2205 2290 2310 2202 2505 2204 1984 1761 2159 1892 1632 1973 1878 1851 1838 1563 1734 1476 1489 1354 1217
495 80 36 54 103 17 0 0 40 162 459 307 183 86 82 178 159 172 367 911 1111 1606 1868 2104 1985 2029 2296 2337 2031 1893 2115 2148 2246 2212 1999 2347 2273 2060 1922 1764 1740 1926 1745 1630 1380 1328 1432 1376 1070
98 0 59 71 67 103 13 5 54 150 634 370 125 178 66 235 331 358 565 773 1078 1464 1638 1671 1670 1614 1325 1849 1972 1756 1687 1731 1743 1760 1799 2285 2256 2015 2012 2300 1998 1717 1466 1371 1192 1273 1627 1674 1248
49 29 101 115 120 151 98 55 254 455 479 412 252 238 68 208 311 330 401 533 761 1094 1319 1190 473 775 1134 1215 1209 1520 1753 1553 1649 1755 2004 2453 1930 1427 1405 1676 1936 1712 1274 994 1259 1188 1077 825 403
92 20 104 141 77 141 72 108 563 444 250 154 160 49 0 234 314 283 264 331 382 498 852 1066 705 1160 1027 867 740 1125 1146 912 724 989 1464 1538 1730 1498 995 1267 1740 1435 1384 942 988 1411 1734 321 109
154 17 152 233 226 411 312 267 41 470 288 69 48 12 5 122 8 121 285 190 205 310 497 708 836 1004 636 1149 1091 1059 847 587 501 891 1110 1140 1365 1262 1402 1068 498 427 318 338 184 187 64 159 137
206 103 160 278 539 321 1092 656 584 309 116 186 55 19 1 0 0 1 16 84 163 264 457 539 750 677 515 968 919 845 528 419 406 410 661 786 1026 777 1110 872 452 243 233 88 79 26 130 99 194
248 65 91 245 571 602 674 558 351 245 376 251 117 65 61 20 14 34 74 72 210 269 451 528 564 550 333 571 696 643 582 385 194 239 257 466 364 446 676 537 144 249 298 167 100 42 163 192 245
2 6 216 241 267 597 597 799 576 248 232 349 219 63 44 75 92 70 159 184 200 268 408 529 504 594 203 164 369 497 238 107 238 427 305 217 241 703 766 378 188 231 270 291 55 108 150 208 239
87 384 251 322 334 122 652 591 477 286 243 437 377 154 110 42 86 162 173 163 241 283 335 428 357 566 173 75 232 299 108 200 522 426 350 292 652 770 306 327 432 411 201 53 121 219 163 113 70
0 18 192 155 301 271 488 332 387 440 477 505 385 243 196 122 88 120 179 207 179 236 217 303 358 369 147 95 335 197 127 148 478 388 261 428 714 825 769 515 578 302 184 205 361 349 38 44 6
0 0 0 0 188 254 560 439 252 631 454 494 449 315 271 159 125 109 125 180 229 322 186 303 318 265 82 150 369 175 33 132 306 278 259 574 759 782 839 613 395 310 239 172 513 118 26 7 79
0 0 0 0 86 194 469 500 361 723 605 390 457 363 386 341 199 94 120 115 156 193 260 266 275 246 209 219 322 260 234 156 54 93 252 511 784 974 929 711 413 580 504 142 24 5 31 40 16
0 0 0 0 0 112 187 480 405 716 646 542 380 271 460 442 286 206 116 158 147 194 309 341 380 358 352 301 313 234 174 205 201 57 101 397 745 861 1002 907 928 614 255 212 298 4 1 13 112
0 0 0 0 0 192 237 234 228 689 738 655 509 275 143 307 335 311 149 119 78 137 245 312 468 431 335 279 260 160 131 112 46 19 38 218 434 532 848 924 1038 1036 604 143 432 32 0 1 26
0 0 0 0 0 451 182 86 66 566 809 766 742 588 371 326 331 290 233 162 130 120 135 262 434 495 382 281 165 111 96 66 40 41 29 188 660 384 509 846 708 1258 1096 630 611 281 217 320 21
0 0 0 0 0 0 0 0 0 4 733 744 661 765 733 439 311 264 271 260 166 152 200 264 376 436 347 328 191 73 77 69 63 38 49 453 688 135 827 864 883 1012 1246 826 968 855 647 897 99
0 0 0 0 0 0 0 0 0 43 32 424 683 415 640 789 443 291 370 365 259 224 234 250 208 290 276 352 234 88 95 46 40 18 82 406 769 189 288 1026 647 1064 1037 996 1309 1446 1362 974 1052
0 0 0 0 0 0 0 0 0 0 11 196 413 559 598 719 535 501 441 466 337 306 297 232 232 313 360 347 264 95 110 49 33 60 3 145 461 746 763 536 1186 579 979 805 715 1012 1187 996 1304
0 0 0 0 0 0 0 0 0 0 0 66 116 461 549 599 542 458 539 614 445 359 343 245 242 262 323 353 238 93 80 0 0 5 9 26 8 19 211 940 1033 1116 732 806 580 462 707 1189 1373
0 0 0 0 0 0 0 0 0 0 0 0 128 462 479 593 678 533 746 758 677 515 422 302 262 231 264 256 125 77 62 24 26 0 0 30 123 115 102 533 1038 1097 988 840 800 656 808 648 1237
0 0 0 0 0 0 0 0 0 0 0 0 1 128 153 228 600 709 872 879 814 776 578 430 343 292 364 234 143 62 47 41 36 32 35 54 182 142 122 475 960 1161 1310 1148 848 693 809 739 664
0 0 0 0 0 0 0 0 0 0 0 0 0 102 164 209 274 764 949 977 954 980 873 540 474 398 447 369 251 180 111 5 0 36 160 309 609 652 328 382 723 971 1161 1198 913 1108 1426 922 753
0 0 0 0 0 0 0 0 0 0 0 0 0 0 96 240 286 705 710 814 908 1026 1021 784 655 516 521 511 372 371 489 309 89 97 200 431 599 925 727 559 728 979 1136 1107 1000 1173 1250 1036 1253
0 0 0 0 0 0 0 0 0 0 0 0 30 196 65 28 396 758 849 828 814 893 1027 935 792 748 628 643 492 458 534 735 856 448 589 700 695 1118 974 617 683 919 1037 970 1004 968 690 650 876
CIN
-268 -227 -129 -120 0 -104 -86 -43 -33 -32 -50 -41 -55 -74 -58 -31 -63 -10 -179 -183 -78 -20 -8 -3 0 0 0 0 0 0 0 0 0 0 0 0 0 -3 -6 -3 -5 -2 0 0 0 0 0 0 0
-75 -94 -170 0 0 -13 -118 -46 -75 -61 -68 -58 -42 -35 -30 -19 -237 -194 -156 -119 -65 -13 -3 -4 -2 0 0 0 0 0 0 0 0 0 0 0 0 0 0 0 0 0 0 0 0 0 0 0 0
-75 -126 -100 -110 0 -3 -47 -81 -83 -64 -34 -56 -114 -118 -94 0 -210 -152 -113 -93 -22 -8 -2 -3 -3 -1 0 0 0 0 0 0 0 0 0 0 0 0 0 0 0 0 0 0 0 0 0 -1 -3
-63 -84 -99 -90 0 -87 -31 -37 -20 -26 -63 -56 -126 -127 0 0 -152 -117 -129 -25 -21 -1 -3 0 0 -5 -1 0 0 0 0 0 0 0 0 0 0 0 0 0 0 0 -1 -7 -10 -5 -2 -1 -11
-76 -55 -25 -55 -52 -50 -35 -56 -53 -75 -59 -63 -100 -100 0 0 -153 -133 -96 -52 -27 -1 -2 -1 0 0 0 0 0 -1 0 0 0 -4 0 0 0 0 0 0 0 0 -10 -9 -15 -7 -6 -4 -8
-47 -66 -36 -27 -62 -41 -18 -190 -127 -119 -48 -63 -117 -76 0 -143 -121 -126 -110 -69 -34 -21 -1 0 0 0 0 0 0 0 -1 -1 0 0 -1 0 0 0 0 0 0 0 -8 -12 -6 -6 -5 -6 -13
-60 -64 -37 -49 -59 -104 0 0 -157 -99 -59 -40 -114 -162 -161 -134 -99 -115 -102 -52 -31 -3 -1 0 0 -1 0 0 0 0 0 -2 -2 0 -3 0 0 0 0 -1 0 0 -9 -7 -13 -13 -8 -4 -15
-174 0 -25 -35 -46 -59 -98 -127 -70 -110 -41 -36 -34 -29 -184 -146 -93 -67 -58 -49 -25 -5 -7 -7 -5 -2 -10 -1 0 0 0 -1 -10 -8 -7 0 0 0 0 0 0 -8 -12 -6 -10 -11 -3 -12 -24
-51 -41 -28 -36 -39 -94 -121 -150 -75 -43 -55 -59 -59 -76 -59 -169 -82 -47 -32 -28 -26 -18 -11 -27 -77 -48 -17 -9 -3 -2 0 -2 -6 -7 -2 -1 0 -1 -8 -18 -9 -15 -3 -3 -3 -15 -23 -34 -52
-40 -33 -22 -37 -24 -77 -168 -77 -38 -43 -55 -121 -95 -143 0 -129 -54 -38 -35 -41 -45 -59 -31 -19 -56 -19 -24 -15 -14 -4 -2 -17 -27 -22 -6 -7 -4 -3 -31 -34 -18 -7 -17 -40 -56 -25 -15 -88 -135
-44 -47 -24 -69 -74 -87 -35 -43 -71 -92 -86 -134 -57 -37 -127 -129 -18 -79 -53 -78 -113 -94 -82 -68 -48 -18 -38 -12 -10 -4 -15 -24 -49 -28 -19 -28 -25 -12 -19 -43 -65 -30 -157 -222 -137 -52 -41 -54 -84
-107 -158 -113 -79 -80 -76 -54 -82 -91 -117 -114 -154 -30 -261 -12 0 0 -15 -64 -88 -46 -93 -90 -87 -66 -56 -50 -25 -14 -15 -29 -51 -60 -78 -63 -54 -28 -32 -45 -43 -42 -71 -62 -137 -187 -291 -161 -252 -106
-42 -40 -29 -113 -112 -89 -85 -47 -101 -65 -144 -139 -179 -199 -202 -211 -185 -149 -122 -119 -54 -102 -79 -80 -83 -63 -57 -54 -22 -19 -33 -52 -92 -113 -120 -38 -31 -41 -49 -51 -13 -115 -62 -194 -325 -277 -180 -164 -289
-29 -28 -43 -48 -102 -93 -85 -98 -62 -130 -197 -125 -171 -173 -169 -170 -157 -118 -94 -93 -110 -92 -87 -72 -96 -52 -63 -120 -70 -41 -55 -67 -117 -81 -115 -39 -23 -39 -55 -53 -134 -119 -154 -240 -217 -246 -166 -85 -76
-109 -78 -69 -48 -46 -35 -146 -140 -166 -59 -186 -168 -149 -129 -127 -123 -127 -127 -98 -101 -104 -93 -80 -81 -48 -51 -97 -144 -84 -71 -71 -127 -62 -53 -99 -135 -30 -43 -33 -52 -30 -91 -243 -328 -208 -113 -143 -418 -370
0 -109 -44 -36 -50 -54 -69 -65 -150 -67 -173 -143 -141 -123 -117 -142 -137 -96 -95 -79 -110 -53 -69 -113 -65 -66 -130 -148 -67 -88 -129 -150 -65 -47 -104 -61 -24 -37 -31 -98 -79 -37 -42 -230 -144 -190 -461 -439 -14
0 0 0 0 -167 -88 -74 -74 -68 -138 -78 -156 -152 -154 -68 -66 -104 -100 -93 -95 -81 -75 -50 -97 -85 -65 -168 -84 -54 -85 -161 -103 -48 -63 -93 -35 -48 -43 -25 -16 -35 -51 -148 -102 -140 -203 -356 -182 -48
0 0 0 0 -116 -140 -74 -62 -68 -125 -72 -148 -125 -149 -136 -122 -93 -140 -135 -108 -93 -132 -84 -49 -117 -68 -92 -52 -45 -17 -45 -54 -91 -57 -81 -38 -37 -39 -35 -30 -35 -28 -38 -206 -234 -433 -266 -179 -63
0 0 0 0 0 -147 -99 -107 -104 -168 -87 -97 -108 -117 -176 -133 -100 -65 -112 -107 -108 -142 -115 -144 -100 -79 -51 -21 -23 -19 -37 -59 -69 -104 -85 -34 -37 -34 -37 -39 -74 -45 -34 -41 -40 -176 -17 -101 -87
0 0 0 0 0 -120 -48 -68 -87 -232 -158 -109 -138 -33 -141 -178 -131 -108 -106 -117 -184 -182 -141 -165 -100 -61 -53 -40 -17 -45 -55 -63 -107 -143 -97 -53 -76 -54 -32 -23 -54 -40 -48 -94 -43 -87 0 -97 -40
0 0 0 0 0 -76 -39 -86 -38 -260 -212 -187 -294 -225 -164 -162 -160 -132 -88 -102 -206 -209 -191 -174 -122 -80 -64 -39 -34 -46 -32 -42 -68 -85 -115 -149 -51 -58 -87 -8 -33 -42 -34 -29 -40 -46 -56 -40 -28
0 0 0 0 0 0 0 0 0 -132 -318 -260 -221 -247 -190 -147 -106 -151 -93 -77 -100 -212 -192 -153 -128 -99 -87 -51 -38 -73 -73 -80 -74 -162 -183 -57 -39 -21 -87 -55 -60 -34 -37 -55 -38 -37 -51 -46 -49
0 0 0 0 0 0 0 0 0 -485 -414 -457 -340 -168 -268 -142 -142 -76 -66 -82 -84 -217 -194 -196 -162 -193 -130 -86 -55 -75 -73 -87 -84 -139 -64 -30 -52 -119 -78 -66 -50 -66 -61 -42 -42 -46 -39 -48 -24
0 0 0 0 0 0 0 0 0 0 -316 -345 -416 -341 -105 -170 -209 -130 -41 -30 -106 -163 -97 -187 -212 -207 -150 -113 -88 -116 -122 -87 -97 -88 -169 -43 -31 -42 -67 -123 -42 -60 -54 -53 -49 -46 -33 -30 -37
0 0 0 0 0 0 0 0 0 0 0 -435 -337 -376 -228 -110 -100 -249 -55 -43 -46 -204 -129 -203 -219 -230 -190 -146 -127 -159 -137 0 0 -49 -136 -123 -36 -281 -179 -65 -54 -43 -94 -66 -75 -97 -72 -48 -40
0 0 0 0 0 0 0 0 0 0 0 0 -375 -380 -295 -160 -104 -289 -59 -67 -40 -38 -265 -204 -184 -164 -70 -183 -202 -196 -180 -160 -134 0 0 -128 -67 -66 -33 -123 -68 -40 -28 -69 -59 -96 -78 -66 -39
0 0 0 0 0 0 0 0 0 0 0 0 -22 -195 -179 -171 -307 -272 -166 -94 -39 -42 -293 -251 -175 -119 -48 -32 -9 -256 -218 -193 -149 -158 -106 -65 -52 -45 -40 -132 -80 -59 -28 -29 -48 -84 -78 -61 -86
0 0 0 0 0 0 0 0 0 0 0 0 -6 -189 -147 -49 -216 -245 -170 -128 -79 -43 -23 -311 -179 -127 -77 -38 -12 -258 -231 -87 0 -116 -114 -92 -38 -28 -18 -142 -129 -86 -52 -41 -71 -67 -31 -53 -91
0 0 0 0 0 0 0 0 0 0 0 0 0 0 -64 -159 -127 -283 -204 -178 -118 -66 -21 -32 -314 -164 -109 -66 -30 -234 -203 -182 -166 -190 -128 -45 -63 -39 -24 -76 -114 -96 -71 -39 -81 -61 -45 -62 -40
0 0 0 0 0 0 0 0 0 0 0 0 -71 -87 -61 -82 -149 -297 -182 -177 -128 -90 -43 -37 -371 -301 -173 -93 -34 -257 -200 -151 -92 -101 -101 -53 -35 -20 -11 -49 -67 -40 -40 -63 -45 -40 -45 -58 -52
Wind_Speed
8 6 4 nan nan nan nan 6 4 7 4 7 4 8 9 nan nan nan 4 10 16 17 11 11 13 11 10 10 12 12 14 15 16 17 16 16 16 15 16 14 11 9 9 11 9 8 5 6 7
8 7 3 nan nan nan nan 9 10 7 7 10 6 6 2 nan nan 8 9 14 17 8 5 8 15 7 9 10 11 12 12 13 15 16 16 17 16 16 16 16 14 12 11 9 9 7 5 4 4
7 7 7 nan nan nan nan 11 8 11 13 5 6 5 nan nan 4 9 5 13 12 11 6 10 15 13 11 11 11 12 12 13 14 15 16 17 17 17 18 18 16 12 10 10 10 7 4 4 5
6 7 4 nan nan nan nan nan 12 13 7 2 6 5 nan nan 7 6 13 10 11 11 9 13 11 10 8 10 9 14 11 12 14 15 17 19 17 18 18 17 15 14 13 11 9 8 7 6 10
6 7 nan nan nan nan nan nan nan 12 12 12 6 nan nan nan 10 13 12 10 11 13 9 8 5 9 9 8 9 10 12 11 13 15 16 16 18 16 17 17 15 13 13 10 6 4 5 8 11
5 8 nan nan 9 nan nan nan nan 9 6 10 4 nan nan nan 14 12 12 11 9 10 3 3 8 11 12 8 9 10 11 11 12 14 16 17 18 16 17 14 12 13 12 7 8 6 5 8 6
11 nan nan nan 10 nan nan nan nan 14 9 11 7 nan nan 10 13 13 12 8 6 4 1 3 5 10 14 11 8 10 13 9 12 15 17 20 19 14 16 12 11 12 11 10 7 2 5 5 5
nan nan nan nan nan 14 nan nan nan 10 12 7 11 9 nan 12 14 12 11 8 3 3 1 3 4 3 5 12 6 7 12 5 10 14 15 19 16 12 13 10 9 14 6 3 4 3 3 3 10
nan nan 3 9 12 15 nan nan 8 9 5 2 7 6 nan 16 14 12 9 3 2 3 1 3 2 2 3 7 1 8 14 10 9 13 13 15 10 4 6 6 9 12 8 10 11 6 4 8 10
nan nan 7 7 nan 16 nan 21 15 3 2 3 5 nan nan 15 13 14 13 6 5 5 3 2 3 6 5 5 4 7 5 9 10 11 13 10 11 4 2 5 11 5 16 16 19 13 8 11 15
6 nan 4 6 9 14 22 24 nan 11 1 nan nan nan nan 14 nan 12 13 10 10 8 2 4 5 6 6 4 3 2 1 6 6 6 9 11 11 5 3 2 1 5 12 5 9 7 nan 16 14
10 8 7 6 10 10 14 15 13 13 7 12 nan nan nan nan nan nan nan nan 7 7 5 5 1 5 6 4 4 3 4 7 9 7 10 11 10 5 2 1 1 7 3 nan nan nan 18 nan 12
3 nan nan 13 18 12 10 11 8 11 8 15 18 nan nan nan nan nan nan nan 9 6 2 2 2 2 3 5 6 6 6 7 6 4 10 12 8 4 2 0 2 6 2 7 7 nan 16 18 19
nan nan 8 10 12 20 19 7 6 8 9 17 21 nan nan nan nan nan 5 9 10 6 4 2 3 3 3 6 8 8 7 9 8 7 8 8 9 6 3 5 5 10 12 5 nan 18 20 15 18
nan 5 5 6 7 15 16 8 8 7 8 20 21 25 18 nan nan 10 9 7 9 4 2 6 4 4 4 nan 8 8 10 14 12 7 5 12 8 7 7 6 7 10 9 nan 10 10 15 18 nan
nan nan 4 7 9 12 14 12 11 8 12 21 19 24 20 16 nan 9 8 7 4 4 5 5 5 1 2 nan 8 8 9 8 23 13 8 13 12 10 7 8 6 9 10 9 8 7 nan nan nan
nan nan nan nan 11 10 13 10 7 14 11 14 17 22 22 15 9 7 9 8 5 5 5 3 4 2 nan 6 8 6 nan 5 14 12 12 12 11 9 10 10 6 10 7 12 13 7 nan nan nan
nan nan nan nan nan 13 14 14 7 12 15 17 18 18 21 17 17 nan 11 9 9 6 2 2 3 4 7 14 13 11 10 7 nan nan 10 9 8 11 14 11 7 10 7 4 nan nan nan nan nan
nan nan nan nan nan 15 20 16 17 13 16 16 11 8 16 18 16 18 13 11 11 8 6 2 6 7 10 14 15 15 12 8 11 nan 9 6 5 10 13 12 10 10 9 6 6 nan nan nan 6
nan nan nan nan nan 21 11 17 12 9 23 23 17 15 13 16 15 15 15 13 nan 9 8 4 4 7 8 11 12 14 13 10 nan nan nan 7 4 6 8 12 12 11 7 9 5 nan nan nan nan
nan nan nan nan nan 12 11 nan nan 13 13 15 18 10 8 14 13 15 18 19 11 9 11 6 4 9 8 9 14 15 nan nan nan nan nan 13 7 6 6 8 14 16 10 7 5 4 5 5 nan
nan nan nan nan nan nan nan nan nan nan 12 18 21 21 10 16 12 14 17 21 19 13 11 8 6 11 11 10 10 nan nan nan nan nan nan 12 11 7 7 7 14 17 14 8 5 2 1 2 nan
nan nan nan nan nan nan nan nan nan nan nan 11 24 25 20 18 19 16 20 22 21 9 7 8 7 11 11 9 10 nan nan nan nan nan nan 11 10 7 8 8 11 16 16 12 9 6 2 4 5
nan nan nan nan nan nan nan nan nan nan nan 3 14 27 28 24 16 12 15 16 18 7 6 9 8 6 11 11 13 nan 14 nan nan nan nan 11 12 10 7 7 8 11 14 13 10 9 7 5 4
nan nan nan nan nan nan nan nan nan nan nan nan 14 23 26 21 23 17 15 15 14 9 6 7 8 6 9 11 11 nan nan nan nan nan nan nan nan nan 11 10 10 11 10 13 15 14 12 10 10
nan nan nan nan nan nan nan nan nan nan nan nan 12 20 20 18 20 21 13 16 15 8 9 8 10 8 7 9 7 nan nan nan nan nan nan nan 13 11 11 10 10 10 10 9 15 18 14 12 11
nan nan nan nan nan nan nan nan nan nan nan nan nan 15 22 24 23 25 16 9 14 13 10 10 11 10 11 11 8 nan nan nan nan nan nan nan 11 10 9 8 7 7 7 7 8 14 14 13 13
nan nan nan nan nan nan nan nan nan nan nan nan nan 11 14 17 19 24 22 11 12 16 16 15 13 12 14 13 13 9 6 nan nan nan 11 12 10 10 10 8 8 7 6 6 10 8 9 12 13
nan nan nan nan nan nan nan nan nan nan nan nan nan nan nan 22 20 23 28 26 15 18 19 15 14 7 9 11 13 12 12 9 nan nan 11 13 14 14 12 11 10 10 7 9 11 11 10 10 12
nan nan nan nan nan nan nan nan nan nan nan nan nan 15 nan nan 15 21 24 24 18 19 23 17 15 12 9 11 14 11 7 9 10 10 13 14 15 15 14 15 15 12 12 14 12 9 11 12 11
Wind_Direction
109 92 103 nan nan nan nan 210 101 130 63 80 10 40 6 nan nan nan 317 320 315 281 270 302 314 303 319 321 346 336 328 322 329 324 320 326 322 331 336 339 346 356 6 352 10 12 354 15 39
123 98 156 nan nan nan nan 228 166 154 51 338 323 46 49 nan nan 306 315 339 337 326 247 271 294 317 310 330 342 331 328 324 323 322 322 327 326 335 338 339 343 359 5 356 26 19 6 31 43
151 136 167 nan nan nan nan 220 170 154 87 118 1 36 nan nan 324 336 344 337 326 332 284 261 305 334 340 331 327 326 326 327 320 321 324 323 328 331 341 341 344 358 6 17 31 27 13 40 56
204 201 231 nan nan nan nan nan 147 148 102 139 337 335 nan nan 13 351 326 336 332 344 277 277 296 304 312 318 325 324 315 314 313 320 323 319 326 336 343 335 344 1 18 35 44 30 37 48 56
247 260 nan nan nan nan nan nan nan 133 83 63 37 nan nan nan 309 326 323 330 330 347 4 238 286 288 295 301 314 326 317 313 315 317 315 311 321 339 345 335 357 8 31 42 63 68 70 39 62
225 304 nan nan 280 nan nan nan nan 66 91 6 354 nan nan nan 315 338 329 342 346 354 16 52 308 284 290 298 316 337 315 314 313 309 307 307 317 345 343 343 5 23 40 45 54 56 84 29 70
29 nan nan nan 308 nan nan nan nan 89 91 40 340 nan nan 335 334 333 325 326 335 345 340 244 311 325 289 281 305 322 313 308 318 304 306 311 322 340 342 356 19 39 43 52 54 107 107 123 121
nan nan nan nan nan 350 nan nan nan 78 135 347 348 7 nan 360 333 321 320 323 336 327 284 269 322 319 210 211 318 356 2 329 301 307 307 306 319 338 343 358 35 56 48 111 112 68 73 143 117
nan nan 57 43 355 348 nan nan 55 89 332 110 33 346 nan 334 329 322 320 306 328 347 63 239 293 220 99 167 203 325 339 328 308 296 309 278 263 280 3 358 45 76 208 178 125 87 121 181 145
nan nan 52 52 nan 352 nan 18 11 340 246 256 244 nan nan 334 342 347 353 359 21 30 31 29 299 274 213 204 234 272 295 259 257 248 256 247 256 213 55 44 45 212 231 202 125 165 212 143 109
262 nan 359 62 40 340 14 22 nan 351 4 nan nan nan nan 347 nan 7 4 13 18 53 70 327 293 253 210 204 263 198 249 293 265 288 225 234 229 194 126 74 53 277 272 46 100 99 nan 119 114
224 122 0 34 8 348 17 8 33 42 37 333 nan nan nan nan nan nan nan nan 19 37 11 337 292 249 209 176 234 260 289 287 296 282 260 234 201 181 159 154 127 276 338 nan nan nan 110 nan 106
65 nan nan 47 11 350 333 29 17 60 7 334 330 nan nan nan nan nan nan nan 4 54 46 20 286 297 189 232 251 266 286 290 307 264 236 228 192 182 163 237 284 287 319 46 73 nan 138 137 137
nan nan 110 24 11 6 347 355 8 55 10 2 353 nan nan nan nan nan 8 21 11 18 31 10 33 106 231 245 273 274 266 268 286 187 197 209 194 165 166 274 316 324 348 78 nan 127 120 150 144
nan 52 140 101 19 16 337 329 15 353 6 356 5 1 3 nan nan 24 23 24 28 27 25 52 349 236 199 nan 254 254 279 259 246 210 186 171 200 184 237 260 300 341 310 nan 107 122 127 127 nan
nan nan 195 92 14 14 339 36 4 335 330 352 6 17 9 9 nan 10 16 30 44 8 36 71 50 1 209 nan 238 271 292 262 231 227 213 196 202 229 247 243 271 296 330 359 52 101 nan nan nan
nan nan nan nan 30 19 1 61 16 339 351 2 17 23 17 358 12 14 15 357 342 13 43 85 43 326 nan 234 252 275 nan 279 211 231 224 210 209 228 250 255 263 292 310 17 8 65 nan nan nan
nan nan nan nan nan 32 23 55 42 1 1 18 28 37 34 2 359 nan 355 358 323 295 82 124 204 248 232 241 242 231 244 249 nan nan 240 222 209 229 241 250 268 281 309 357 nan nan nan nan nan
nan nan nan nan nan 11 38 39 71 26 26 27 8 30 24 21 11 329 320 323 324 303 287 221 264 244 242 239 243 237 234 237 214 nan 210 206 225 228 243 240 254 262 291 312 31 nan nan nan 148
nan nan nan nan nan 343 8 52 99 34 48 31 17 10 25 18 1 360 324 309 nan 328 317 259 249 242 229 240 240 239 243 237 nan nan nan 201 275 239 241 244 224 254 256 295 352 nan nan nan nan
nan nan nan nan nan 331 317 nan nan 65 41 22 49 22 20 25 10 351 348 333 306 312 318 311 261 245 237 244 238 221 nan nan nan nan nan 214 265 252 233 240 224 228 231 281 315 355 15 46 nan
nan nan nan nan nan nan nan nan nan nan 60 36 31 37 352 2 20 358 343 328 334 314 288 288 278 247 229 247 252 nan nan nan nan nan nan 198 228 224 229 219 219 226 231 251 274 302 292 267 nan
nan nan nan nan nan nan nan nan nan nan nan 43 28 27 8 348 359 356 340 340 340 332 292 285 265 251 239 258 266 nan nan nan nan nan nan 177 214 209 214 216 207 213 225 233 253 254 307 279 274
nan nan nan nan nan nan nan nan nan nan nan 117 42 29 27 10 12 352 335 328 332 310 276 272 277 261 257 268 271 nan 258 nan nan nan nan 204 203 188 196 198 207 204 219 233 235 242 247 253 256
nan nan nan nan nan nan nan nan nan nan nan nan 24 16 23 7 6 351 319 310 322 317 283 275 295 298 280 285 285 nan nan nan nan nan nan nan nan nan 170 187 191 196 211 235 231 228 230 238 234
nan nan nan nan nan nan nan nan nan nan nan nan 10 354 8 359 354 358 344 325 328 330 305 314 317 318 298 296 304 nan nan nan nan nan nan nan 210 188 185 193 188 208 219 233 242 235 234 231 241
nan nan nan nan nan nan nan nan nan nan nan nan nan 334 355 352 345 352 352 327 325 312 321 329 320 310 304 299 281 nan nan nan nan nan nan nan 224 220 210 227 220 221 234 246 258 242 247 255 259
nan nan nan nan nan nan nan nan nan nan nan nan nan 359 18 5 355 347 346 347 308 310 318 320 327 325 299 297 282 271 277 nan nan nan 225 223 231 245 250 241 253 252 241 254 266 230 230 251 257
nan nan nan nan nan nan nan nan nan nan nan nan nan nan nan 347 359 356 356 354 321 304 303 320 319 313 302 284 278 271 271 264 nan nan 248 241 232 242 249 260 260 266 269 268 257 259 245 253 262
nan nan nan nan nan nan nan nan nan nan nan nan nan 243 nan nan 343 337 339 347 329 318 310 322 324 293 291 278 277 275 271 248 244 249 255 256 251 244 253 255 260 261 262 267 261 287 276 264 264